This is the latest recevied weather packets stored in our database for station/object K6POO-1. If no packets are shown the sender has not sent any weather packets the latest 10 day(s).
| Time | Temp. | Humidity | Pressure | Rain* | Wind** | Luminosity | Snow |
|---|---|---|---|---|---|---|---|
| 1788453565 | 18.89° C | 75% | 1015.2 hPa | 0 mm | - | 263 W/m² | - |
| 1788453261 | 18.89° C | 76% | 1015.2 hPa | 0 mm | - | 249 W/m² | - |
| 1788452957 | 18.89° C | 77% | 1015.3 hPa | 0 mm | - | 229 W/m² | - |
| 1788452653 | 18.33° C | 77% | 1015.4 hPa | 0 mm | - | 218 W/m² | - |
| 1788452349 | 18.33° C | 77% | 1015.5 hPa | 0 mm | - | 212 W/m² | - |
| 1788452043 | 18.33° C | 77% | 1015.4 hPa | 0 mm | - | 186 W/m² | - |
| 1788451740 | 18.33° C | 77% | 1015.4 hPa | 0 mm | - | 196 W/m² | - |
| 1788451438 | 18.33° C | 77% | 1015.2 hPa | 0 mm | - | 188 W/m² | - |
| 1788451137 | 18.33° C | 77% | 1015.4 hPa | 0 mm | - | 157 W/m² | - |
| 1788450833 | 18.33° C | 78% | 1015.4 hPa | 0 mm | - | 142 W/m² | - |
| 1788450528 | 18.33° C | 78% | 1015.2 hPa | 0 mm | - | 153 W/m² | - |
| 1788450233 | 18.33° C | 78% | 1015.2 hPa | 0 mm | - | 149 W/m² | - |
| 1788449919 | 18.33° C | 78% | 1015.2 hPa | 0 mm | - | 152 W/m² | - |
| 1788449615 | 17.78° C | 78% | 1015.3 hPa | 0 mm | - | 162 W/m² | - |
| 1788449312 | 17.78° C | 78% | 1015.4 hPa | 0 mm | - | 144 W/m² | - |
| 1788449007 | 17.78° C | 78% | 1015.6 hPa | 0 mm | - | 146 W/m² | - |
| 1788448702 | 17.78° C | 79% | 1015.5 hPa | 0 mm | - | 156 W/m² | - |
| 1788448398 | 17.78° C | 80% | 1015.4 hPa | 0 mm | - | 131 W/m² | - |
| 1788448097 | 17.78° C | 80% | 1015.4 hPa | 0 mm | - | 112 W/m² | - |
| 1788447797 | 17.78° C | 80% | 1015.4 hPa | 0 mm | - | 103 W/m² | - |
| 1788447492 | 17.78° C | 81% | 1015.2 hPa | 0 mm | - | 107 W/m² | - |
| 1788447187 | 17.78° C | 81% | 1015.3 hPa | 0 mm | - | 177 W/m² | - |
| 1788446886 | 17.78° C | 83% | 1015.3 hPa | 0 mm | - | 169 W/m² | - |
| 1788446582 | 17.22° C | 84% | 1015.4 hPa | 0 mm | - | 120 W/m² | - |
| 1788446277 | 17.22° C | 87% | 1015.5 hPa | 0 mm | - | 162 W/m² | - |
* Rain latest hour (hover to see other rain measurements)
** Current wind speed in m/s (hover to see current wind gust speed)